| time (UTC) | temp C | wind direction | speed KPH | gust KPH | rain 1hr cm | rain 24hr cm | rain mn cm | humidity % | barometer mb |
| 20260906161032 | 32 | 145 | 9.7 | 16.1 | 0.00 | 0.00 | 0.00 | 33 | 1017.9 |
| 20260906160027 | 32 | 145 | 12.9 | 20.9 | 0.00 | 0.00 | 0.00 | 34 | 1017.8 |
| 20260906155022 | 33 | 146 | 8.0 | 16.1 | 0.00 | 0.00 | 0.00 | 34 | 1018.0 |
| 20260906154018 | 33 | 160 | 6.4 | 12.9 | 0.00 | 0.00 | 0.00 | 33 | 1018.0 |
| 20260906153033 | 33 | 136 | 12.9 | 24.1 | 0.00 | 0.00 | 0.00 | 33 | 1017.9 |
| 20260906152028 | 33 | 153 | 12.9 | 22.5 | 0.00 | 0.00 | 0.00 | 33 | 1017.8 |
| 20260906151024 | 33 | 166 | 8.0 | 17.7 | 0.00 | 0.00 | 0.00 | 32 | 1017.9 |
| 20260906150019 | 33 | 167 | 6.4 | 16.1 | 0.00 | 0.00 | 0.00 | 32 | 1017.8 |
| 20260906145035 | 33 | 156 | 8.0 | 17.7 | 0.00 | 0.00 | 0.00 | 32 | 1017.8 |
| 20260906144030 | 33 | 171 | 8.0 | 17.7 | 0.00 | 0.00 | 0.00 | 32 | 1017.7 |
| 20260906143025 | 33 | 164 | 9.7 | 20.9 | 0.00 | 0.00 | 0.00 | 32 | 1017.9 |
| 20260906142021 | 33 | 158 | 9.7 | 22.5 | 0.00 | 0.00 | 0.00 | 33 | 1017.9 |
| 20260906141016 | 33 | 182 | 9.7 | 22.5 | 0.00 | 0.00 | 0.00 | 32 | 1018.0 |
| 20260906140031 | 33 | 149 | 12.9 | 20.9 | 0.00 | 0.00 | 0.00 | 33 | 1017.9 |
| 20260906135027 | 34 | 162 | 14.5 | 22.5 | 0.00 | 0.00 | 0.00 | 32 | 1018.1 |
| 20260906134022 | 34 | 118 | 12.9 | 29.0 | 0.00 | 0.00 | 0.00 | 29 | 1017.9 |
| 20260906133017 | 34 | 128 | 14.5 | 22.5 | 0.00 | 0.00 | 0.00 | 28 | 1018.1 |
| 20260906132033 | 33 | 114 | 11.3 | 22.5 | 0.00 | 0.00 | 0.00 | 28 | 1018.3 |
| 20260906131029 | 33 | 159 | 8.0 | 16.1 | 0.00 | 0.00 | 0.00 | 30 | 1018.3 |
| 20260906130024 | 33 | 122 | 11.3 | 16.1 | 0.00 | 0.00 | 0.00 | 33 | 1018.3 |
| 20260906125019 | 33 | 97 | 8.0 | 14.5 | 0.00 | 0.00 | 0.00 | 30 | 1018.4 |
| 20260906124034 | 34 | 91 | 6.4 | 14.5 | 0.00 | 0.00 | 0.00 | 30 | 1018.5 |
| 20260906123030 | 34 | 92 | 4.8 | 20.9 | 0.00 | 0.00 | 0.00 | 27 | 1018.5 |
| 20260906122025 | 34 | 115 | 9.7 | 16.1 | 0.00 | 0.00 | 0.00 | 27 | 1018.6 |
| 20260906121021 | 35 | 95 | 4.8 | 14.5 | 0.00 | 0.00 | 0.00 | 28 | 1018.7 |
| 20260906120016 | 35 | 121 | 8.0 | 17.7 | 0.00 | 0.00 | 0.00 | 29 | 1018.6 |
| 20260906115032 | 35 | 141 | 6.4 | 12.9 | 0.00 | 0.00 | 0.00 | 27 | 1018.7 |
| 20260906114028 | 35 | 113 | 8.0 | 17.7 | 0.00 | 0.00 | 0.00 | 24 | 1018.7 |
| 20260906113023 | 35 | 129 | 4.8 | 9.7 | 0.00 | 0.00 | 0.00 | 23 | 1018.8 |
| 20260906112019 | 36 | 127 | 3.2 | 12.9 | 0.00 | 0.00 | 0.00 | 25 | 1018.8 |
| 20260906111054 | 35 | 107 | 3.2 | 11.3 | 0.00 | 0.00 | 0.00 | 25 | 1019.0 |
| 20260906110030 | 35 | 175 | 3.2 | 6.4 | 0.00 | 0.00 | 0.00 | 25 | 1019.1 |
| 20260906105045 | 35 | 117 | 1.6 | 6.4 | 0.00 | 0.00 | 0.00 | 25 | 1019.3 |
| 20260906104021 | 35 | 135 | 1.6 | 4.8 | 0.00 | 0.00 | 0.00 | 25 | 1019.4 |
| 20260906103036 | 34 | 104 | 1.6 | 4.8 | 0.00 | 0.00 | 0.00 | 27 | 1019.5 |
| 20260906102051 | 33 | 135 | 1.6 | 4.8 | 0.00 | 0.00 | 0.00 | 27 | 1019.5 |
| 20260906101026 | 33 | 61 | 0.0 | 3.2 | 0.00 | 0.00 | 0.00 | 29 | 1019.6 |
| 20260906100021 | 33 | 113 | 3.2 | 6.4 | 0.00 | 0.00 | 0.00 | 28 | 1019.6 |
| 20260906095057 | 33 | 140 | 0.0 | 3.2 | 0.00 | 0.00 | 0.00 | 28 | 1019.6 |
| 20260906094032 | 33 | 150 | 1.6 | 3.2 | 0.00 | 0.00 | 0.00 | 28 | 1019.8 |
| 20260906093027 | 33 | 133 | 0.0 | 3.2 | 0.00 | 0.00 | 0.00 | 28 | 1019.6 |
| 20260906092023 | 33 | 105 | 0.0 | 3.2 | 0.00 | 0.00 | 0.00 | 28 | 1019.7 |
| 20260906091018 | 31 | 39 | 0.0 | 1.6 | 0.00 | 0.00 | 0.00 | 30 | 1019.7 |
| 20260906090034 | 30 | 0.0 | 0.0 | 0.00 | 0.00 | 0.00 | 31 | 1019.7 | |
| 20260906085030 | 30 | 301 | 1.6 | 4.8 | 0.00 | 0.00 | 0.00 | 32 | 1019.6 |
| 20260906084025 | 29 | 347 | 1.6 | 3.2 | 0.00 | 0.00 | 0.00 | 33 | 1019.7 |
| 20260906083020 | 29 | 339 | 1.6 | 3.2 | 0.00 | 0.00 | 0.00 | 33 | 1019.6 |
| 20260906082015 | 29 | 300 | 1.6 | 6.4 | 0.00 | 0.00 | 0.00 | 33 | 1019.5 |
| 20260906081030 | 29 | 303 | 1.6 | 4.8 | 0.00 | 0.00 | 0.00 | 33 | 1019.4 |
| 20260906080026 | 28 | 281 | 3.2 | 4.8 | 0.00 | 0.00 | 0.00 | 33 | 1019.4 |
| 20260906075041 | 28 | 287 | 1.6 | 4.8 | 0.00 | 0.00 | 0.00 | 35 | 1019.3 |
| 20260906074036 | 27 | 347 | 1.6 | 4.8 | 0.00 | 0.00 | 0.00 | 37 | 1019.1 |
| 20260906073032 | 27 | 322 | 3.2 | 6.4 | 0.00 | 0.00 | 0.00 | 38 | 1019.2 |
| 20260906072027 | 26 | 8 | 0.0 | 3.2 | 0.00 | 0.00 | 0.00 | 40 | 1019.2 |
| 20260906071022 | 26 | 326 | 0.0 | 3.2 | 0.00 | 0.00 | 0.00 | 42 | 1019.2 |
| 20260906070018 | 26 | 334 | 0.0 | 1.6 | 0.00 | 0.00 | 0.00 | 43 | 1019.2 |
| 20260906065033 | 25 | 5 | 0.0 | 1.6 | 0.00 | 0.00 | 0.00 | 45 | 1019.2 |
| 20260906064049 | 24 | 302 | 1.6 | 6.4 | 0.00 | 0.00 | 0.00 | 47 | 1019.1 |
| 20260906063024 | 24 | 317 | 1.6 | 4.8 | 0.00 | 0.00 | 0.00 | 48 | 1019.1 |
| 20260906062019 | 23 | 331 | 0.0 | 3.2 | 0.00 | 0.00 | 0.00 | 48 | 1019.1 |
| 20260906061114 | 23 | 291 | 3.2 | 11.3 | 0.00 | 0.00 | 0.00 | 48 | 1019.0 |
| 20260906060030 | 23 | 290 | 3.2 | 9.7 | 0.00 | 0.00 | 0.00 | 48 | 1018.9 |
| 20260906055026 | 23 | 270 | 0.0 | 1.6 | 0.00 | 0.00 | 0.00 | 47 | 1018.8 |
| 20260906054041 | 23 | 306 | 1.6 | 4.8 | 0.00 | 0.00 | 0.00 | 47 | 1018.7 |
| 20260906053016 | 23 | 330 | 0.0 | 1.6 | 0.00 | 0.00 | 0.00 | 46 | 1018.6 |
| 20260906052032 | 23 | 330 | 0.0 | 3.2 | 0.00 | 0.00 | 0.00 | 45 | 1018.5 |
| 20260906051027 | 23 | 0.0 | 0.0 | 0.00 | 0.00 | 0.00 | 48 | 1018.4 | |
| 20260906050023 | 23 | 0.0 | 0.0 | 0.00 | 0.00 | 0.00 | 48 | 1018.4 | |
| 20260906045018 | 24 | 331 | 1.6 | 4.8 | 0.00 | 0.00 | 0.00 | 48 | 1018.3 |
| 20260906044033 | 24 | 313 | 3.2 | 9.7 | 0.00 | 0.00 | 0.00 | 47 | 1018.5 |
| 20260906043028 | 25 | 310 | 3.2 | 11.3 | 0.00 | 0.00 | 0.00 | 47 | 1018.5 |
| 20260906042024 | 24 | 311 | 6.4 | 14.5 | 0.00 | 0.00 | 0.00 | 50 | 1018.6 |
| 20260906041019 | 23 | 304 | 4.8 | 9.7 | 0.00 | 0.00 | 0.00 | 54 | 1018.7 |
| 20260906040055 | 23 | 289 | 1.6 | 4.8 | 0.00 | 0.00 | 0.00 | 53 | 1018.6 |
| 20260906035031 | 23 | 283 | 1.6 | 4.8 | 0.00 | 0.00 | 0.00 | 55 | 1018.5 |
| 20260906034026 | 23 | 0.0 | 0.0 | 0.00 | 0.00 | 0.00 | 58 | 1018.7 | |
| 20260906033022 | 23 | 0.0 | 0.0 | 0.00 | 0.00 | 0.00 | 56 | 1018.6 | |
| 20260906032017 | 24 | 332 | 0.0 | 1.6 | 0.00 | 0.00 | 0.00 | 55 | 1018.6 |
| 20260906031032 | 24 | 314 | 1.6 | 6.4 | 0.00 | 0.00 | 0.00 | 54 | 1018.7 |
| 20260906030028 | 24 | 296 | 1.6 | 6.4 | 0.00 | 0.00 | 0.00 | 54 | 1018.8 |
| 20260906025043 | 24 | 316 | 0.0 | 3.2 | 0.00 | 0.00 | 0.00 | 55 | 1018.7 |
| 20260906024019 | 24 | 300 | 1.6 | 3.2 | 0.00 | 0.00 | 0.00 | 54 | 1018.6 |
| 20260906023034 | 24 | 311 | 0.0 | 1.6 | 0.00 | 0.00 | 0.00 | 54 | 1018.7 |
| 20260906022029 | 24 | 316 | 1.6 | 1.6 | 0.00 | 0.00 | 0.00 | 54 | 1018.8 |
| 20260906021025 | 24 | 293 | 1.6 | 3.2 | 0.00 | 0.00 | 0.00 | 56 | 1018.8 |
| 20260906020020 | 24 | 0.0 | 0.0 | 0.00 | 0.00 | 0.00 | 59 | 1019.0 | |
| 20260906015036 | 24 | 0.0 | 0.0 | 0.00 | 0.00 | 0.00 | 61 | 1019.0 | |
| 20260906014031 | 25 | 0.0 | 0.0 | 0.00 | 0.00 | 0.00 | 62 | 1019.1 | |
| 20260906013027 | 24 | 0.0 | 0.0 | 0.00 | 0.00 | 0.00 | 62 | 1019.2 | |
| 20260906012042 | 25 | 0.0 | 0.0 | 0.00 | 0.00 | 0.00 | 62 | 1019.3 | |
| 20260906011018 | 25 | 0.0 | 0.0 | 0.00 | 0.00 | 0.00 | 62 | 1019.3 | |
| 20260906010033 | 25 | 0.0 | 0.0 | 0.00 | 0.00 | 0.00 | 62 | 1019.3 | |
| 20260906005028 | 25 | 279 | 1.6 | 4.8 | 0.00 | 0.00 | 0.00 | 62 | 1019.4 |
| 20260906004023 | 25 | 282 | 1.6 | 6.4 | 0.00 | 0.00 | 0.00 | 63 | 1019.2 |
| 20260906003019 | 25 | 0.0 | 0.0 | 0.00 | 0.00 | 0.00 | 68 | 1019.3 | |
| 20260906002034 | 25 | 0.0 | 0.0 | 0.00 | 0.00 | 0.00 | 67 | 1019.3 | |
| 20260906001029 | 25 | 0.0 | 0.0 | 0.00 | 0.00 | 0.00 | 65 | 1019.3 | |
| 20260906000024 | 25 | 354 | 1.6 | 1.6 | 0.00 | 0.00 | 0.00 | 63 | 1019.3 |
| 20260905235019 | 25 | 357 | 0.0 | 1.6 | 0.00 | 0.00 | 0.00 | 63 | 1019.3 |
| 20260905234035 | 26 | 334 | 0.0 | 1.6 | 0.00 | 0.00 | 0.00 | 64 | 1019.4 |
| 20260905233030 | 26 | 308 | 0.0 | 3.2 | 0.00 | 0.00 | 0.00 | 62 | 1019.6 |
| 20260905232025 | 26 | 321 | 0.0 | 1.6 | 0.00 | 0.00 | 0.00 | 63 | 1019.5 |
| 20260905231020 | 26 | 300 | 0.0 | 1.6 | 0.00 | 0.00 | 0.00 | 62 | 1019.6 |
| 20260905230015 | 26 | 339 | 0.0 | 1.6 | 0.00 | 0.00 | 0.00 | 64 | 1019.6 |
| 20260905225031 | 26 | 212 | 0.0 | 1.6 | 0.00 | 0.00 | 0.00 | 65 | 1019.6 |
| 20260905224026 | 26 | 313 | 0.0 | 3.2 | 0.00 | 0.00 | 0.00 | 64 | 1019.7 |
| 20260905223042 | 26 | 332 | 0.0 | 1.6 | 0.00 | 0.00 | 0.00 | 65 | 1019.8 |
| 20260905222017 | 26 | 334 | 0.0 | 1.6 | 0.00 | 0.00 | 0.00 | 65 | 1019.7 |
| 20260905221032 | 26 | 325 | 1.6 | 4.8 | 0.00 | 0.00 | 0.00 | 62 | 1019.7 |
| 20260905220028 | 26 | 290 | 1.6 | 4.8 | 0.00 | 0.00 | 0.00 | 58 | 1019.7 |
| 20260905215023 | 26 | 327 | 1.6 | 4.8 | 0.00 | 0.00 | 0.00 | 59 | 1019.8 |
| 20260905214018 | 26 | 324 | 1.6 | 4.8 | 0.00 | 0.00 | 0.00 | 60 | 1019.9 |
| 20260905213034 | 26 | 342 | 1.6 | 3.2 | 0.00 | 0.00 | 0.00 | 62 | 1019.8 |
| 20260905212029 | 26 | 347 | 1.6 | 3.2 | 0.00 | 0.00 | 0.00 | 63 | 1019.9 |
| 20260905211024 | 26 | 356 | 1.6 | 3.2 | 0.00 | 0.00 | 0.00 | 66 | 1019.9 |
| 20260905210019 | 26 | 347 | 1.6 | 3.2 | 0.00 | 0.00 | 0.00 | 67 | 1019.9 |
| 20260905205035 | 26 | 350 | 3.2 | 4.8 | 0.00 | 0.00 | 0.00 | 70 | 1020.0 |
| 20260905204030 | 26 | 355 | 1.6 | 3.2 | 0.00 | 0.00 | 0.00 | 71 | 1020.0 |
| 20260905203025 | 26 | 339 | 1.6 | 3.2 | 0.00 | 0.00 | 0.00 | 71 | 1020.0 |
| 20260905202020 | 26 | 348 | 3.2 | 4.8 | 0.00 | 0.00 | 0.00 | 70 | 1020.0 |
| 20260905201035 | 26 | 353 | 1.6 | 3.2 | 0.00 | 0.00 | 0.00 | 72 | 1019.9 |
| 20260905200031 | 26 | 352 | 1.6 | 3.2 | 0.00 | 0.00 | 0.00 | 73 | 1019.9 |
| 20260905195026 | 26 | 7 | 0.0 | 1.6 | 0.00 | 0.00 | 0.00 | 71 | 1019.8 |
| 20260905194021 | 27 | 7 | 1.6 | 1.6 | 0.00 | 0.00 | 0.00 | 72 | 1019.8 |
| 20260905193016 | 27 | 0.0 | 0.0 | 0.00 | 0.00 | 0.00 | 72 | 1019.6 | |
| 20260905192052 | 27 | 40 | 0.0 | 1.6 | 0.00 | 0.00 | 0.00 | 73 | 1019.6 |
| 20260905191027 | 27 | 17 | 1.6 | 3.2 | 0.00 | 0.00 | 0.00 | 73 | 1019.5 |
| 20260905190022 | 27 | 357 | 1.6 | 3.2 | 0.00 | 0.00 | 0.00 | 73 | 1019.4 |
| 20260905185018 | 27 | 69 | 0.0 | 1.6 | 0.00 | 0.00 | 0.00 | 74 | 1019.3 |
| 20260905184033 | 27 | 75 | 0.0 | 4.8 | 0.00 | 0.00 | 0.00 | 74 | 1019.3 |
| 20260905183029 | 27 | 78 | 0.0 | 1.6 | 0.00 | 0.00 | 0.00 | 73 | 1019.2 |
| 20260905182023 | 27 | 67 | 0.0 | 3.2 | 0.00 | 0.00 | 0.00 | 74 | 1019.3 |
| 20260905181019 | 27 | 94 | 3.2 | 4.8 | 0.00 | 0.00 | 0.00 | 74 | 1019.1 |
| 20260905180035 | 27 | 91 | 4.8 | 6.4 | 0.00 | 0.00 | 0.00 | 73 | 1019.1 |
| 20260905175030 | 27 | 80 | 1.6 | 6.4 | 0.00 | 0.00 | 0.00 | 72 | 1019.1 |
| 20260905174025 | 27 | 88 | 1.6 | 9.7 | 0.00 | 0.00 | 0.00 | 72 | 1019.0 |
| 20260905173021 | 28 | 90 | 3.2 | 9.7 | 0.00 | 0.00 | 0.00 | 70 | 1019.1 |
| 20260905172016 | 28 | 93 | 8.0 | 11.3 | 0.00 | 0.00 | 0.00 | 69 | 1019.0 |
| 20260905171051 | 28 | 97 | 4.8 | 12.9 | 0.00 | 0.00 | 0.00 | 68 | 1018.9 |
| 20260905170026 | 28 | 94 | 8.0 | 14.5 | 0.00 | 0.00 | 0.00 | 69 | 1018.8 |
| 20260905165021 | 28 | 107 | 8.0 | 14.5 | 0.00 | 0.00 | 0.00 | 68 | 1018.9 |
| 20260905164016 | 28 | 103 | 6.4 | 14.5 | 0.00 | 0.00 | 0.00 | 66 | 1018.7 |
| 20260905163031 | 28 | 104 | 9.7 | 17.7 | 0.00 | 0.00 | 0.00 | 65 | 1018.7 |
| 20260905162026 | 29 | 102 | 6.4 | 14.5 | 0.00 | 0.00 | 0.00 | 64 | 1018.7 |